(751) Faina
ephemeris date magn radius delta ra dec elong phase
Today14 Jul 202614.62.750 AU3.588 AU09h40m+25°49'29.6°10.5°
Opposition12 Apr 202713.32.940 AU1.977 AU13h50m+09°45'160.2°6.6°
(751) Faina - 2026-07-14
astro.vanbuitenen.nl


 
-1 year
-1 month
-1 day
Now
+1 day
+1 month
+1 year

The interactive orbit chart above shows the body's path through the solar system and its position at the given date. Green and blue lines are shown perpendicular to the ecliptic plane: Green if the path is above the ecliptic plane, blue if it is below. (Left-click and drag to rotate the view; Right-click and drag to move the view; Use scroll wheel to zoom in our out.)

The orbital elements of Faina are:

            e (Eccentricity)                : 0.1519564
            a (Semimajor axis)              : 2.5518239
            i (Inclination)                 : 15.58983
            Ω (Longitude of ascending node) : 78.78980
            ω (Argument of perihelion)      : 302.89022
            M (Mean anomaly)                : 104.81098
            Epoch                           : 2026 Jun 09

            L (Longitude of perihelion)     : 22.66670
            B (Latitude of perihelion)      : -13.04239
            P (Orbital period in years)     : 4.08            
        

The light curve chart below shows the estimated development of the minor planet's magnitude.


The all-sky chart below shows the path of the minor planet over the same period as the light curve. The current position is marked yellow.





The following chart shows the path of the minor planet in the next few days. The field of view is optimized for (~10x50) binoculars and finderscopes.




Ephemerides:
Date       Time       RA (2000)    DEC (2000)    delta   radius  elong  phase   PA    magn
2026-07-14 00:00 UT   09 40 18.1   +25 49 14     3.588    2.750   29.6   10.5    89   14.6 
2026-07-14 22:21 UT   09 41 50.8   +25 41 40     3.594    2.751   29.1   10.4    89   14.6 
2026-07-15 00:00 UT   09 41 57.7   +25 41 06     3.595    2.751   29.1   10.3    89   14.6 
2026-07-16 00:00 UT   09 43 37.3   +25 32 56     3.602    2.753   28.6   10.2    88   14.6 
2026-07-17 00:00 UT   09 45 16.8   +25 24 44     3.609    2.754   28.1   10.0    88   14.6 
2026-07-18 00:00 UT   09 46 56.2   +25 16 30     3.615    2.755   27.6    9.8    88   14.6 
2026-07-19 00:00 UT   09 48 35.6   +25 08 15     3.622    2.757   27.1    9.7    87   14.6 
2026-07-20 00:00 UT   09 50 14.9   +24 59 57     3.629    2.758   26.6    9.5    87   14.6 
2026-07-21 00:00 UT   09 51 54.2   +24 51 37     3.635    2.759   26.1    9.3    86   14.6 
2026-07-22 00:00 UT   09 53 33.4   +24 43 15     3.641    2.760   25.6    9.2    86   14.6 
2026-07-23 00:00 UT   09 55 12.5   +24 34 52     3.648    2.762   25.1    9.0    85   14.6 
2026-07-24 00:00 UT   09 56 51.5   +24 26 27     3.654    2.763   24.6    8.8    85   14.5 
2026-07-25 00:00 UT   09 58 30.4   +24 17 60     3.659    2.764   24.2    8.7    84   14.5 
2026-07-26 00:00 UT   10 00 09.2   +24 09 31     3.665    2.766   23.7    8.5    84   14.5 
2026-07-27 00:00 UT   10 01 48.0   +24 01 01     3.671    2.767   23.2    8.3    83   14.5 
2026-07-28 00:00 UT   10 03 26.7   +23 52 29     3.677    2.768   22.7    8.2    83   14.5 
2026-07-29 00:00 UT   10 05 05.2   +23 43 55     3.682    2.769   22.3    8.0    82   14.5 
2026-07-30 00:00 UT   10 06 43.7   +23 35 20     3.687    2.771   21.8    7.8    81   14.5 
2026-07-31 00:00 UT   10 08 22.1   +23 26 44     3.693    2.772   21.3    7.7    81   14.5 
2026-08-01 00:00 UT   10 10 00.4   +23 18 05     3.698    2.773   20.9    7.5    80   14.5 
2026-08-02 00:00 UT   10 11 38.7   +23 09 26     3.703    2.774   20.4    7.3    79   14.5 
2026-08-03 00:00 UT   10 13 16.8   +23 00 45     3.707    2.775   20.0    7.2    78   14.5 
2026-08-04 00:00 UT   10 14 54.8   +22 52 02     3.712    2.777   19.5    7.0    77   14.5 


    Terminology:
            
    delta:  distance between minor planet and earth in AU
    radius: distance between minor planet and sun in AU
    magn:   magnitude (brightness) estimate    
    ra:     right ascension in hours (24h = 360deg)
    dec:    declination in degrees
    elong:  elongation in degrees (angle sun-earth-minor planet)    
    phase:  phase angle in degrees (angle sun-minor planet-earth)        
    AU:     Astronomical Unit (mean distance between earth and sun: 149597870.7 km
    

Orbital elements provided by the MPC (Minor Planet Center).
Calculations by a modified version of AAPlus, a C# implementation of the AA+ project by PJ Naughter from the algorithms presented in the book "Astronomical Algorithms" by Jean Meeus.
NGC2000 dso catalog and star labels from VizieR as provided by the Strasbourg astronomical Data Center.
Tycho2 catalog from the ESO archive.